Location: Lane
(33.5226°N, 79.8788°W)
Time: 03:39:54
(UTC+00:00)

Altair - Pass Details

Date: 10 October 2022
Orbit: 1501 x 1682 km, 47.2° (Epoch: 01 December)

Event Time Altitude Azimuth Distance (km) Brightness Sun altitude
Rises 13:44:35 0° 305° (NW) 4,861 9.6 27.5°
Reaches altitude 10° 13:47:45 10° 309° (NW) 3,893 9.2 28.1°
Maximum altitude 13:57:44 66° 31° (NNE) 1,806 8.4 29.8°
Drops below altitude 10° 14:07:49 10° 112° (ESE) 3,937 11.1 31.6°
Sets 14:11:02 0° 115° (ESE) 4,918 11.2 32.1°
